Weather History for KTTF - October, 2013

Change the Weather History Date:

Thursday, October 3, 2013

  Actual Average Record
Temperature  
Mean Temperature 68 °F -  
Max Temperature 80 °F 67 °F 88 °F (1951)
Min Temperature 57 °F 46 °F 28 °F (1974)
Cooling Degree Days 4    
Growing Degree Days 18 (Base 50)    
Moisture  
Dew Point 65 °F    
Average Humidity 87    
Maximum Humidity 100    
Minimum Humidity 65    
Precipitation  
Precipitation 0.00 in - - ()
Sea Level Pressure  
Sea Level Pressure 30.00 in    
Wind  
Wind Speed 2 mph (SW)    
Max Wind Speed 12 mph    
Max Gust Speed 20 mph    
Visibility 8 miles    
Events Rain    
Averages and records for this station are not official NWS values.
T = Trace of Precipitation, MM = Missing Value Source: NWS Daily Summary

Daily Weather History Graph

Daily Weather History Graph

Search for Another Location

Airport or City:

Trip Planner

Search our weather history database for the weather conditions in past years. The results will help you decide how hot, cold, wet, or windy it might be!

Date:

Astronomy

Oct. 03, 2013 Rise Set
Actual Time 7:33 AM EDT 7:11 PM EDT
Civil Twilight 7:05 AM EDT 7:39 PM EDT
Nautical Twilight 6:32 AM EDT 8:11 PM EDT
Astronomical Twilight 6:00 AM EDT 8:44 PM EDT
Moon 6:04 AM EDT (10/3) 6:19 PM EDT (10/3)
Length of Visible Light 12h 34m
Length of Day
11h 38m
Waning Crescent, 2% of the Moon is Illuminated
Oct 3
Waning Crescent
Oct 4
New
Oct 11
First Quarter
Oct 18
Full
Oct 26
Last Quarter

Hourly Weather History & Observations

Time (EDT) Temp. Heat Index Dew Point Humidity Pressure Visibility Wind Dir Wind Speed Gust Speed Precip Events Conditions
12:12 AM 59.0 °F - 57.2 °F 94% 30.06 in 10.0 mi Calm Calm - N/A   Clear
12:32 AM 59.0 °F - 57.2 °F 94% 30.05 in 10.0 mi Calm Calm - N/A   Scattered Clouds
12:53 AM 60.8 °F - 57.2 °F 88% 30.05 in 10.0 mi Calm Calm - N/A   Overcast
1:13 AM 60.8 °F - 57.2 °F 88% 30.04 in 10.0 mi Calm Calm - N/A   Scattered Clouds
1:33 AM 57.2 °F - 57.2 °F 100% 30.04 in 7.0 mi Calm Calm - N/A   Clear
1:53 AM 59.0 °F - 57.2 °F 94% 30.04 in 7.0 mi Calm Calm - N/A   Clear
2:13 AM 57.2 °F - 57.2 °F 100% 30.03 in 7.0 mi Calm Calm - N/A   Clear
2:33 AM 57.2 °F - 57.2 °F 100% 30.03 in 4.0 mi ENE 3.5 mph - N/A   Clear
2:53 AM 60.8 °F - 60.8 °F 100% 30.03 in 7.0 mi Calm Calm - N/A   Clear
3:13 AM 62.6 °F - 60.8 °F 94% 30.03 in 10.0 mi Calm Calm - N/A   Scattered Clouds
3:33 AM 62.6 °F - 60.8 °F 94% 30.02 in 10.0 mi Calm Calm - N/A   Clear
3:54 AM 62.6 °F - 60.8 °F 94% 30.02 in 10.0 mi Calm Calm - N/A   Scattered Clouds
4:14 AM 62.6 °F - 60.8 °F 94% 30.02 in 7.0 mi Calm Calm - N/A   Mostly Cloudy
4:34 AM 62.6 °F - 60.8 °F 94% 30.02 in 10.0 mi Calm Calm - N/A   Scattered Clouds
4:54 AM 62.6 °F - 60.8 °F 94% 30.03 in 10.0 mi Calm Calm - N/A   Mostly Cloudy
5:14 AM 62.6 °F - 60.8 °F 94% 30.02 in 10.0 mi Calm Calm - N/A   Scattered Clouds
5:34 AM 62.6 °F - 60.8 °F 94% 30.02 in 10.0 mi Calm Calm - N/A   Clear
5:54 AM 60.8 °F - 60.8 °F 100% 30.02 in 7.0 mi Calm Calm - N/A   Clear
6:14 AM 62.6 °F - 60.8 °F 94% 30.03 in 7.0 mi Calm Calm - N/A   Scattered Clouds
6:34 AM 62.6 °F - 60.8 °F 94% 30.03 in 10.0 mi Calm Calm - N/A   Mostly Cloudy
6:54 AM 62.6 °F - 62.6 °F 100% 30.03 in 7.0 mi Calm Calm - N/A   Mostly Cloudy
7:14 AM 64.4 °F - 62.6 °F 94% 30.02 in 7.0 mi Calm Calm - N/A   Mostly Cloudy
7:35 AM 64.4 °F - 62.6 °F 94% 30.02 in 5.0 mi Calm Calm - N/A   Scattered Clouds
7:55 AM 64.4 °F - 64.4 °F 100% 30.02 in 4.0 mi Calm Calm - N/A   Clear
8:15 AM 66.2 °F - 64.4 °F 94% 30.02 in 3.0 mi Calm Calm - N/A   Clear
8:35 AM 66.2 °F - 64.4 °F 94% 30.02 in 3.0 mi Calm Calm - N/A   Clear
8:55 AM 68.0 °F - 66.2 °F 94% 30.02 in 2.5 mi Calm Calm - N/A   Clear
9:15 AM 69.8 °F - 66.2 °F 88% 30.02 in 2.0 mi Calm Calm - N/A   Clear
9:35 AM 69.8 °F - 66.2 °F 88% 30.03 in 4.0 mi West 3.5 mph - N/A   Scattered Clouds
9:55 AM 69.8 °F - 66.2 °F 88% 30.03 in 4.0 mi Calm Calm - N/A   Mostly Cloudy
10:15 AM 69.8 °F - 66.2 °F 88% 30.03 in 4.0 mi Calm Calm - N/A   Mostly Cloudy
10:35 AM 71.6 °F - 66.2 °F 83% 30.03 in 4.0 mi SSW 3.5 mph - N/A   Haze
10:55 AM 71.6 °F - 64.4 °F 78% 30.03 in 5.0 mi Calm Calm - N/A   Haze
11:16 AM 73.4 °F - 64.4 °F 73% 30.03 in 7.0 mi Calm Calm - N/A   Mostly Cloudy
11:36 AM 73.4 °F - 64.4 °F 73% 30.03 in 7.0 mi SW 3.5 mph - N/A   Scattered Clouds
11:56 AM 73.4 °F - 66.2 °F 78% 30.03 in 7.0 mi SSW 4.6 mph - N/A   Scattered Clouds
12:16 PM 73.4 °F - 68.0 °F 83% 30.03 in 5.0 mi SW 4.6 mph - N/A Rain Rain
12:36 PM 71.6 °F - 69.8 °F 94% 30.02 in 3.0 mi Calm Calm - N/A Rain Light Rain
12:56 PM 73.4 °F - 69.8 °F 88% 30.01 in 4.0 mi South 4.6 mph - N/A Rain Light Rain
1:16 PM 73.4 °F - 69.8 °F 88% 30.00 in 4.0 mi South 6.9 mph - N/A   Scattered Clouds
1:36 PM 75.2 °F - 71.6 °F 89% 29.99 in 7.0 mi SSW 10.4 mph - N/A   Scattered Clouds
1:56 PM 75.2 °F - 69.8 °F 83% 29.99 in 10.0 mi SW 9.2 mph - N/A   Mostly Cloudy
2:16 PM 77.0 °F - 69.8 °F 78% 29.98 in 10.0 mi SSW 9.2 mph - N/A   Mostly Cloudy
2:32 PM 78.8 °F - 71.6 °F 78% 29.97 in 10.0 mi WSW 8.1 mph - N/A   Mostly Cloudy
2:52 PM 78.8 °F - 69.8 °F 74% 29.97 in 10.0 mi WSW 11.5 mph 19.6 mph N/A   Mostly Cloudy
3:12 PM 78.8 °F - 69.8 °F 74% 29.97 in 10.0 mi WSW 8.1 mph - N/A   Scattered Clouds
3:32 PM 78.8 °F - 69.8 °F 74% 29.96 in 10.0 mi WSW 8.1 mph 17.3 mph N/A   Scattered Clouds
3:52 PM 78.8 °F - 69.8 °F 74% 29.96 in 10.0 mi West 9.2 mph - N/A   Overcast
4:12 PM 80.6 °F 83.2 °F 68.0 °F 65% 29.95 in 10.0 mi SW 11.5 mph - N/A   Mostly Cloudy
4:32 PM 80.6 °F 83.2 °F 68.0 °F 65% 29.94 in 10.0 mi West 10.4 mph 17.3 mph N/A   Mostly Cloudy
4:52 PM 78.8 °F - 69.8 °F 74% 29.94 in 10.0 mi West 5.8 mph - N/A   Mostly Cloudy
5:12 PM 78.8 °F - 69.8 °F 74% 29.94 in 10.0 mi WSW 5.8 mph - N/A   Mostly Cloudy
5:33 PM 80.6 °F 83.2 °F 68.0 °F 65% 29.93 in 10.0 mi SW 5.8 mph - N/A   Scattered Clouds
5:53 PM 80.6 °F 83.2 °F 68.0 °F 65% 29.94 in 10.0 mi SW 9.2 mph - N/A   Clear
6:13 PM 78.8 °F - 69.8 °F 74% 29.94 in 10.0 mi South 6.9 mph - N/A   Clear
6:33 PM 78.8 °F - 69.8 °F 74% 29.94 in 10.0 mi SW 4.6 mph - N/A   Clear
6:53 PM 77.0 °F - 69.8 °F 78% 29.94 in 10.0 mi South 3.5 mph - N/A   Clear
7:13 PM 75.2 °F - 69.8 °F 83% 29.94 in 10.0 mi Calm Calm - N/A   Clear
7:33 PM 73.4 °F - 69.8 °F 88% 29.94 in 10.0 mi Calm Calm - N/A   Clear
7:53 PM 73.4 °F - 69.8 °F 88% 29.94 in 10.0 mi Calm Calm - N/A   Clear
8:13 PM 71.6 °F - 69.8 °F 94% 29.95 in 10.0 mi Calm Calm - N/A   Clear
8:33 PM 69.8 °F - 66.2 °F 88% 29.96 in 10.0 mi Calm Calm - N/A   Clear
8:54 PM 69.8 °F - 68.0 °F 94% 29.97 in 10.0 mi Calm Calm - N/A   Clear
9:14 PM 69.8 °F - 68.0 °F 94% 29.97 in 10.0 mi Calm Calm - N/A   Scattered Clouds
9:34 PM 71.6 °F - 68.0 °F 88% 29.97 in 10.0 mi Calm Calm - N/A   Scattered Clouds
9:54 PM 69.8 °F - 66.2 °F 88% 29.97 in 7.0 mi Calm Calm - N/A   Clear
10:14 PM 66.2 °F - 66.2 °F 100% 29.97 in 7.0 mi Calm Calm - N/A   Clear
10:34 PM 68.0 °F - 66.2 °F 94% 29.97 in 10.0 mi South 3.5 mph - N/A   Clear
10:54 PM 69.8 °F - 66.2 °F 88% 29.98 in 10.0 mi South 4.6 mph - N/A   Clear
11:14 PM 69.8 °F - 66.2 °F 88% 29.97 in 10.0 mi South 5.8 mph - N/A   Clear
11:35 PM 71.6 °F - 66.2 °F 83% 29.97 in 10.0 mi SSW 6.9 mph - N/A   Clear